STARLINK-35719, 67183

Orbit data source: Space-Track

STARLINK-35719, 67183 is a payload satellite owned by SpaceX/Seattle (US) in LEO that was launched on Wed, 17 Dec 2025 UTC via an FALCON 9 launch vehicle from the Air Force Eastern Test Range (AFETR). Payload-class satellites include a variety of spacecraft equipped with specific instruments for various scientific and technological missions. These include communications satellites like Starlink; space stations such as the ISS; scientific satellites like the Hubble; Earth observation satellites from companies like Planet Labs, Umbra, and HawkEye 360; GPS; miniature CubeSats for education and research; and military/defense satellites.

Loading next visibility...
Identifier
67183, 2025-303W
Orbit
LEO
Country
Flag of USUS
Related business
Manufacturer
SpaceX/Seattle
Mission
Operational Commercial Communications
Bus & Motor
STARLINK V2MO, Unknown motor
Mass
575 kg wet, ~530 kg dry
Launch date (UTC)
2025-12-17 (6 months ago)
Launch vehicle
FALCON 9
Launch site
Air Force Eastern Test Range (AFETR)
Object type
Payload
Rocket body
Debris
Shape & HBR
Box + 2 Pan, 17.7 m
Radar Cross Section
36.964 m², Large (>1 m²)

Expand to show TLE details & history
Last TLE update: 19 hours ago

TLE from 19 hours ago
0 STARLINK-35719
1 67183U 25303W   26171.11982290  .00018835  00000-0  69157-3 0  9993
2 67183  43.0016  91.9687 0001494 271.6071  88.4610 15.27611328 28400
Epoch: 2026-06-20T02:52Z
TLE epoch observation values (Epoch: 2026-06-20T02:52:32.698Z)
Latitude
0.00001°
Longitude
140.49345°
Altitude
482.703 km
Speed
7.626 km/s
True Right ascension
06h 07m 52s
True Declination
0° 00' 00"
Sunlit
Object was in daylight at epoch
Visualization orbit readout
Latitude
Unknown
Longitude
Unknown
Altitude
Unknown
Speed
Unknown
Apparent Right ascension
Unknown
Apparent Declination
Unknown
Sunlit
N/A
Visualization observer readout
Local Sidereal Time
08:32:50
Azimuth
Unknown
Elevation
Unknown
Doppler factor
Unknown
Orbital elements
Apogee altitude
485.926 km
Perigee altitude
483.875 km
Semi-major axis
6,863.037 km
Eccentricity
0.00015
Inclination
43.0016°
RAAN
91.9687°
Arg. of periapsis
271.6071°
True anomaly
88.47811°
Mean anomaly
88.461°
Eccentric anomaly
88.46956°
Mean motion
3.81741 °/min
Orbital period
94.3 mins
BSTAR
0.00069157
Loading maneuver chart data...
Computing Atmospheric mass density...
Loading historical data...
Loading historical data...
Loading historical data...
Loading historical data...
Loading historical data...
Loading historical data...
Loading historical data...

Documentation

Showing up to 5 results
|